Aérodrome :
LOGIN :

S'inscrire | Disclaimer

   EN    FR    IT 

 










Légende :    VFR   VFR Marginal   IFR   IFR Intensif   IFR Très Intensif
Visi : 
Plafond : 
>= 8 km
>= 3000ft
5 à 8 km
1000 à 3000 ft
1500m à 5 km
500 à 1000 ft
800 à 1500m
200 à 500 ft
< 800m
< 200 ft
Symboles :   Orages  Brouillard  Fortes neiges  Fortes précipitations  Vent > 20 kt
SIGMETs :   Divers  Orages  Givrage  Turbulence  Onde Orograph.  Cendres Volcan.







- Altitude de l'aérodrome : 102 ft
- Code IATA : CNG
- Voir les cartes d'approche


LFBG - Cognac

DERNIER METAR :
  • 210400Z AUTO 01004KT CAVOK 06/03 Q1031

METARs EXPIRÉS :
  • 210330Z AUTO 03005KT CAVOK 06/03 Q1031
  • 210300Z AUTO 01005KT CAVOK 07/04 Q1031
  • 210230Z AUTO 36006KT CAVOK 07/04 Q1031
  • 210200Z AUTO 02004KT CAVOK 08/04 Q1031
  • 210130Z AUTO 03006KT CAVOK 08/04 Q1032

TAF TAF LFBG
Valide du 20 à 15h jusqu'au 21 à 15h UTC


201400Z 2015/2115 04010KT CAVOK
Pas de NOTAMs connus pour ce terrain.



MET'MAP, la Météo Aéronautique d'un coup d'oeil ! - Copyright ORBIFLY Décembre 2007 - Disclaimer

ORBIFLY MET'MAP TEAM :

Programmation & Développement : Alexandra Zaïnal
Conception & Développement : Baudouin d'Aumeries
Co-Programmation & Développement : Marc-Olivier Méhu
Soutien technique & logistique : Manuel Goepfert

Contact : metmap@orbifly.com




SOURCES & CREDITS :

   NOAA